Regional Weather Roundup
Issued by NWS Columbia, SC

Home | Current Version | Previous Version | Text Only | Print | Product List | Glossary On
Versions: 1 2 3 4 5 6 7 8 9 10 11 12 13 14 15 16 17 18 19 20 21 22 23 24 25 26 27 28
000
ASUS42 KCAE 240510
RWRCAE
REGIONAL WEATHER ROUNDUP
NATIONAL WEATHER SERVICE COLUMBIA SC
100 AM EDT THU APR 24 2014

NOTE: "FAIR" INDICATES FEW OR NO CLOUDS BELOW 12,000 FEET WITH NO
SIGNIFICANT WEATHER AND/OR OBSTRUCTIONS TO VISIBILITY.

NOT ALL STATIONS ARE QUALITY CONTROLLED BY THE NATIONAL
WEATHER SERVICE. USE DATA WITH CAUTION...ESPECIALLY
DEWPOINT OBSERVATIONS.

SCZ001>056-GAZ040-063>065-077-240600-
...UPSTATE SOUTH CAROLINA...

CITY           SKY/WX    TMP DP  RH WIND       PRES   REMARKS
ANDERSON       CLEAR     56  34  43 E6        29.97R
LIBERTY        FAIR      60  32  34 MISG      29.96R
SPARTANBURG    FAIR      61  32  33 NE5       29.98R
CLEMSON        CLEAR     61  30  31 CALM      29.97R
GREENVILLE     CLEAR     61  27  27 NE10      29.98R
GREENWOOD      CLEAR     56  37  49 CALM      29.99R
GREER          CLEAR     59  29  31 NE7       29.97R
ROCK HILL      CLEAR     55  32  41 NE3       30.00R
CHESTER        FAIR      57  34  41 NE6       30.00R
LAURENS        FAIR      59  32  36 NE6       29.99R


...CENTRAL SOUTH CAROLINA...

CITY           SKY/WX    TMP DP  RH WIND       PRES   REMARKS
COLUMBIA APT   CLEAR     52  46  80 SW3       29.96R
COLUMBIA OWENS CLEAR     57  44  62 CALM      29.97R
DARLINGTON     CLEAR     54  41  62 N6        30.00R
FLORENCE       CLEAR     51  42  71 N3        29.97R
MCENTIRE ANGB  CLEAR     52  43  73 N3        29.96R
ORANGEBURG     CLEAR     55  49  80 CALM      29.95R
SUMTER SHAW    CLEAR     54  45  70 CALM      29.95R
NEWBERRY       FAIR      59  36  41 NE8       30.00R
AIKEN          FAIR      59  46  63 CALM      29.98R
BARNWELL       FAIR      55  52  88 CALM      29.95R
MANNING        FAIR      52 N/A N/A CALM      29.95S
CAMDEN         FAIR      55  39  54 NE7       29.98R
LANCASTER      FAIR      48  39  71 CALM      30.00R
WINNSBORO      FAIR      61  32  33 NE10G16   29.98R


...EASTERN AND COASTAL SOUTH CAROLINA...

CITY           SKY/WX    TMP DP  RH WIND       PRES   REMARKS
MYRTLE BEACH   CLEAR     63  48  59 E7        29.96R
N MYRTLE BCH   CLEAR     53  47  79 CALM      29.96R
CONWAY         FAIR      50  50 100 CALM      29.97R
MARION         FAIR      50  43  76 CALM      29.98R
HARTSVILLE     FAIR      63  32  31 NE10      29.99R
FLORENCE       CLEAR     51  42  71 N3        29.97R
DARLINGTON     CLEAR     54  41  62 N6        30.00R
CHARLESTON APT CLEAR     62  50  64 NE6       29.95R
MOUNT PLEASANT FAIR      57  57 100 CALM      29.94S FOG
WALTERBORO     CLEAR     54 N/A N/A CALM      29.95R
BEAUFORT       CLEAR     61  55  81 CALM      29.93R


...EASTERN GEORGIA...

CITY           SKY/WX    TMP DP  RH WIND       PRES   REMARKS
AUGUSTA BUSH F CLEAR     50  48  93 CALM      29.94R
AUGUSTA DANIEL CLEAR     63  46  54 CALM      29.95R
THOMSON        CLEAR     52  52 100 CALM      29.99R
WASHINGTON     FAIR      54  50  87 NE5       29.95R
CLAXTON        FAIR     N/A N/A N/A CALM      29.94R
SYLVANIA       CLEAR     58  54  86 CALM      29.94S FOG
STATESBORO     CLEAR     55  55  98 CALM      29.94R
SAVANNAH       CLEAR     61  55  81 N5        29.93S


...SOUTHERN NORTH CAROLINA...

CITY           SKY/WX    TMP DP  RH WIND       PRES   REMARKS
CHARLOTTE      CLEAR     58  28  32 NE8       30.01R
MONROE         CLEAR     54  32  43 NE6       30.00R
WADESBORO      CLEAR     44  41  89 CALM      30.01R
ROCKINGHAM       N/A     53  37  55 N3        30.00R
RUTHERFORDTON  CLEAR     56  29  34 N3        30.00R
ASHEVILLE      CLEAR     50  30  46 CALM      30.02F

$$



USA.gov is the U.S. government's official web portal to all federal, state and local government web resources and services.